{"data":{"norad_id":54011,"epoch":"2026-09-20T22:34:01.835328Z","epoch_age_seconds":48613,"freshness":"FRESH","line1":"1 54011U 22125AZ  26263.94029902  .00000203  00000+0  17152-4 0  9991","line2":"2 54011  53.1621  35.4197 0001266  81.5082 278.6064 15.34390277219241","mean_motion":15.34390277,"eccentricity":0.0001266,"inclination_deg":53.1621,"raan_deg":35.4197,"arg_perigee_deg":81.5082,"mean_anomaly_deg":278.6064,"bstar":1.7152e-5,"rev_number":21924,"period_min":93.848352768205,"perigee_km":461.86608513172,"apogee_km":463.59819319776,"semimajor_km":6840.8691391647,"source":"CELESTRAK","updated_at":"2026-09-21T09:00:33.074592Z"}}